Regional Weather Roundup
Issued by NWS

Home | Current Version | Previous Version | Graphics & Text | Print | Product List | Glossary On
Versions: 1 2 3 4 5 6 7 8 9 10 11 12 13 14 15 16 17 18 19 20 21 22 23 24 25 26 27 28 29 30 31 32 33 34 35 36 37 38 39 40 41 42 43 44 45 46 47 48 49 50
000
ASUS43 KBIS 271202
RWRND

NORTH DAKOTA REGIONAL WEATHER ROUNDUP
NATIONAL WEATHER SERVICE BISMARCK ND
700 AM CDT THU AUG 27 2015

NOTE: "FAIR" INDICATES FEW OR NO CLOUDS BELOW 12,000 FEET WITH NO
SIGNIFICANT WEATHER AND/OR OBSTRUCTIONS TO VISIBILITY.


NDZ001>003-009>011-017-271300-
NORTHWEST NORTH DAKOTA

CITY           SKY/WX    TMP DP  RH WIND       PRES   REMARKS
WILLISTON      PTCLDY    57  55  93 N6        29.98F
6HR MIN TEMP:  56; 6HR MAX TEMP:  62;

MINOT          MOCLDY    57  55  93 CALM      29.98S
MINOT AFB      MOCLDY    53  53 100 NW1       29.97F
$$

NDZ018>021-031>035-040>046-271300-
SOUTHWEST NORTH DAKOTA

CITY           SKY/WX    TMP DP  RH WIND       PRES   REMARKS
BISMARCK       PTCLDY    59  58  96 CALM      29.98S
6HR MIN TEMP:  58; 6HR MAX TEMP:  64;

DICKINSON      CLOUDY    60  57  89 E3        29.98R FOG
GARRISON         N/A     62  60  93 NE9       29.97F
6HR MIN TEMP:  60; 6HR MAX TEMP:  65;

HETTINGER ARPT CLOUDY    56  55  97 CALM      30.00R FOG
$$

NDZ004>008-012>016-024-026-027-054-271300-
NORTHEAST NORTH DAKOTA

CITY           SKY/WX    TMP DP  RH WIND       PRES   REMARKS
GRAND FORKS    PTCLDY    53  50  89 S3        30.00R
GRND FRKS AFB  PTCLDY    51  50  94 SE2       30.00S
DEVILS LAKE    PTCLDY    57  50  77 NE3       29.98S
$$

NDZ022-023-025-028>030-036>039-047>053-271300-
SOUTHEAST NORTH DAKOTA

CITY           SKY/WX    TMP DP  RH WIND       PRES   REMARKS
FARGO          PTCLDY    58  53  84 SE6       30.01S
6HR MIN TEMP:  58; 6HR MAX TEMP:  63;

JAMESTOWN      CLOUDY    58  56  93 NE5       29.98S
$$




USA.gov is the U.S. government's official web portal to all federal, state and local government web resources and services.